Managua, Nicaragua

4:27 PM CST on September 24, 2017 (GMT -0600)
Augusto Cesar Sandino

Weather History for MNMG - August, 2013

Change the Weather History Date:

Sunday, August 11, 2013

  Actual Average Record
Temperature  
Mean Temperature 82 °F -  
Max Temperature 89 °F 88 °F 95 °F (1998)
Min Temperature 75 °F 71 °F 71 °F (1999)
Cooling Degree Days 17    
Growing Degree Days 32 (Base 50)    
Moisture  
Dew Point 73 °F    
Average Humidity 81    
Maximum Humidity 94    
Minimum Humidity 55    
Precipitation  
Precipitation 0.00 in - - ()
Sea Level Pressure  
Sea Level Pressure 29.84 in    
Wind  
Wind Speed 2 mph ()    
Max Wind Speed 16 mph    
Max Gust Speed -    
Visibility 6.0 miles    
Events Rain , Thunderstorm    
Averages and records for this station are not official NWS values.
T = Trace of Precipitation, MM = Missing Value Source: Averaged Metar Reports

Daily Weather History Graph

Daily Weather History Graph

Search for Another Location

Airport or City:

Trip Planner

Search our weather history database for the weather conditions in past years. The results will help you decide how hot, cold, wet, or windy it might be!

Date:

Astronomy

Aug. 11, 2013 Rise Set
Actual Time 5:32 AM CST 6:06 PM CST
Civil Twilight 5:10 AM CST 6:28 PM CST
Nautical Twilight 4:45 AM CST 6:54 PM CST
Astronomical Twilight 4:19 AM CST 7:20 PM CST
Moon 9:19 AM CST (8/11) 9:27 PM CST (8/11)
Length of Visible Light 13h 17m
Length of Day
12h 33m
Waxing Crescent, 22% of the Moon is Illuminated
Aug 11
Waxing Crescent
Aug 14
First Quarter
Aug 20
Full
Aug 28
Last Quarter
Sep 5
New

Hourly Weather History & Observations

Time (CST) Temp. Heat Index Dew Point Humidity Pressure Visibility Wind Dir Wind Speed Gust Speed Precip Events Conditions
12:00 AM 78.8 °F - 73.4 °F 83% 29.86 in 6.2 mi Calm Calm - N/A   Scattered Clouds
1:00 AM 77.0 °F - 71.6 °F 83% 29.86 in 6.2 mi Calm Calm - N/A   Partly Cloudy
2:00 AM 77.0 °F - 71.6 °F 83% 29.83 in 6.2 mi Calm Calm - N/A   Partly Cloudy
3:00 AM 77.0 °F - 71.6 °F 83% 29.83 in 6.2 mi Calm Calm - N/A   Scattered Clouds
4:00 AM 75.2 °F - 71.6 °F 89% 29.83 in 6.2 mi Calm Calm - N/A   Partly Cloudy
5:00 AM 75.2 °F - 71.6 °F 89% 29.86 in 6.2 mi Calm Calm - N/A   Scattered Clouds
6:00 AM 75.2 °F - 71.6 °F 89% 29.86 in 6.2 mi Calm Calm - N/A   Scattered Clouds
7:00 AM 78.8 °F - 73.4 °F 83% 29.86 in 6.2 mi Calm Calm - N/A   Partly Cloudy
8:00 AM 82.4 °F 88.2 °F 73.4 °F 74% 29.86 in 6.2 mi East 4.6 mph - N/A   Partly Cloudy
9:00 AM 84.2 °F 90.9 °F 73.4 °F 70% 29.89 in 6.2 mi East 4.6 mph - N/A   Scattered Clouds
10:00 AM 86.0 °F 93.4 °F 73.4 °F 66% 29.89 in 6.2 mi East 4.6 mph - N/A   Scattered Clouds
11:00 AM 86.0 °F 91.8 °F 71.6 °F 62% 29.86 in 6.2 mi East 6.9 mph - N/A   Scattered Clouds
12:00 PM 89.6 °F 98.2 °F 73.4 °F 59% 29.83 in 6.2 mi East 11.5 mph - N/A   Scattered Clouds
1:00 PM 89.6 °F 96.2 °F 71.6 °F 55% 29.80 in 6.2 mi East 9.2 mph - N/A   Partly Cloudy
2:00 PM 82.4 °F 88.2 °F 73.4 °F 74% 29.80 in 5.0 mi NE 16.1 mph - N/A Thunderstorm Light Thunderstorm
2:05 PM - - - N/A% - 3.7 mi North 9.2 mph - N/A Rain , Thunderstorm Light Thunderstorms and Rain
3:00 PM 77.0 °F - 73.4 °F 89% - 5.6 mi East 4.6 mph - N/A Rain , Thunderstorm Light Thunderstorms and Rain
4:00 PM 78.8 °F - 75.2 °F 89% 29.77 in 5.6 mi Calm Calm - N/A   Light Drizzle
5:00 PM 78.8 °F - 73.4 °F 83% 29.77 in 5.6 mi SSE 4.6 mph - N/A   Light Drizzle
6:00 PM 78.8 °F - 75.2 °F 89% 29.80 in 6.2 mi SSE 4.6 mph - N/A   Scattered Clouds
7:00 PM 77.0 °F - 75.2 °F 94% 29.83 in 6.2 mi SE 4.6 mph - N/A   Scattered Clouds
8:00 PM 77.0 °F - 75.2 °F 94% 29.86 in 6.2 mi Calm Calm - N/A   Scattered Clouds
9:00 PM 77.0 °F - 73.4 °F 89% 29.89 in 6.2 mi Calm Calm - N/A   Scattered Clouds
10:00 PM 77.0 °F - 75.2 °F 94% 29.89 in 6.2 mi Calm Calm - N/A   Scattered Clouds
11:00 PM 77.0 °F - 73.4 °F 89% 29.86 in 6.2 mi SSE 4.6 mph - N/A   Partly Cloudy